South Bend, IN

5:44 AM EDT on March 30, 2017 (GMT -0400)
South Bend Regional

Weather History for KSBN - March, 2013

Change the Weather History Date:

Wednesday, March 20, 2013

  Actual Average Record
Temperature  
Mean Temperature 23 °F 39 °F  
Max Temperature 28 °F 48 °F 83 °F (2012)
Min Temperature 17 °F 30 °F 5 °F (1923)
Degree Days  
Heating Degree Days 42 26  
Month to date heating degree days 674 593  
Since 1 July heating degree days 5071 5282  
Cooling Degree Days 0 0  
Month to date cooling degree days 0 0  
Year to date cooling degree days 0 0  
Moisture  
Dew Point 11 °F    
Average Humidity 67    
Maximum Humidity 84    
Minimum Humidity 50    
Precipitation  
Precipitation 0.03 in 0.08 in 1.05 in (1976)
Month to date precipitation 1.13 1.52  
Year to date precipitation 8.62 5.76  
Snow  
Snow 0.70 in 0.20 in 5.80 in (1983)
Month to date snowfall 9.7 5.6  
Since 1 July snowfall 57.4 63.7  
Snow Depth 0.00 in    
Sea Level Pressure  
Sea Level Pressure 30.03 in    
Wind  
Wind Speed 13 mph (WNW)    
Max Wind Speed 22 mph    
Max Gust Speed 26 mph    
Visibility 7 miles    
Events Snow    
T = Trace of Precipitation, MM = Missing Value Source: NWS Daily Summary

Daily Weather History Graph

Daily Weather History Graph

Search for Another Location

Airport or City:

Trip Planner

Search our weather history database for the weather conditions in past years. The results will help you decide how hot, cold, wet, or windy it might be!

Date:

Astronomy

Mar. 20, 2013 Rise Set
Actual Time 7:48 AM EDT 7:57 PM EDT
Civil Twilight 7:20 AM EDT 8:25 PM EDT
Nautical Twilight 6:48 AM EDT 8:58 PM EDT
Astronomical Twilight 6:14 AM EDT 9:31 PM EDT
Moon 1:27 PM EDT (3/20) 3:31 AM EDT (3/20)
Length of Visible Light 13h 05m
Length of Day
12h 09m
First Quarter, 59% of the Moon is Illuminated
Mar 20
First Quarter
Mar 27
Full
Apr 3
Last Quarter
Apr 10
New
Apr 18
First Quarter

Hourly Weather History & Observations

Time (EDT) Temp. Windchill Dew Point Humidity Pressure Visibility Wind Dir Wind Speed Gust Speed Precip Events Conditions
12:54 AM 27.0 °F 16.1 °F 15.1 °F 61% 30.06 in 10.0 mi West 12.7 mph - N/A   Partly Cloudy
1:54 AM 28.0 °F 15.7 °F 14.0 °F 56% 30.05 in 10.0 mi West 17.3 mph 21.9 mph N/A   Overcast
2:54 AM 27.0 °F 16.7 °F 14.0 °F 58% 30.03 in 10.0 mi WNW 11.5 mph - N/A   Overcast
3:54 AM 26.1 °F 14.0 °F 12.9 °F 58% 30.03 in 10.0 mi WNW 15.0 mph - N/A   Overcast
4:54 AM 24.1 °F 11.5 °F 12.0 °F 60% 30.01 in 10.0 mi WNW 15.0 mph - N/A   Partly Cloudy
5:54 AM 23.0 °F 10.6 °F 10.9 °F 60% 30.01 in 10.0 mi WNW 13.8 mph - N/A   Mostly Cloudy
6:09 AM 23.0 °F 9.6 °F 10.4 °F 59% 29.98 in 10.0 mi WNW 16.1 mph 26.5 mph N/A   Overcast
6:54 AM 23.0 °F 10.6 °F 10.9 °F 60% 30.02 in 10.0 mi WNW 13.8 mph - N/A   Overcast
7:54 AM 21.9 °F 9.8 °F 10.9 °F 63% 30.04 in 10.0 mi WNW 12.7 mph 21.9 mph N/A   Overcast
8:54 AM 21.9 °F 8.7 °F 10.9 °F 63% 30.05 in 8.0 mi WNW 15.0 mph 23.0 mph 0.00 in Snow Light Snow
9:23 AM 21.2 °F 7.3 °F 10.4 °F 63% 30.02 in 6.0 mi West 16.1 mph 24.2 mph 0.00 in Snow Light Snow
9:54 AM 21.9 °F 8.7 °F 10.9 °F 63% 30.05 in 9.0 mi WNW 15.0 mph 23.0 mph 0.00 in Snow Light Snow
10:15 AM 21.2 °F 6.4 °F 12.2 °F 68% 30.02 in 6.0 mi WNW 18.4 mph 23.0 mph 0.00 in Snow Light Snow
10:43 AM 21.2 °F 7.8 °F 10.4 °F 63% 30.02 in 8.0 mi WNW 15.0 mph 24.2 mph 0.00 in Snow Light Snow
10:54 AM 21.0 °F 7.1 °F 10.0 °F 63% 30.05 in 8.0 mi West 16.1 mph 26.5 mph 0.00 in Snow Light Snow
11:54 AM 19.9 °F 5.2 °F 8.1 °F 60% 30.06 in 8.0 mi WNW 17.3 mph - 0.00 in Snow Light Snow
12:50 PM 21.2 °F 5.6 °F 6.8 °F 54% 30.03 in 10.0 mi WNW 20.7 mph - 0.00 in   Overcast
12:54 PM 21.0 °F 6.6 °F 7.0 °F 55% 30.06 in 10.0 mi WNW 17.3 mph - 0.00 in   Overcast
1:54 PM 21.0 °F 6.6 °F 7.0 °F 55% 30.06 in 10.0 mi NW 17.3 mph 24.2 mph 0.00 in   Overcast
2:54 PM 23.0 °F 10.1 °F 8.1 °F 53% 30.04 in 10.0 mi West 15.0 mph - N/A   Overcast
3:54 PM 21.9 °F 8.7 °F 6.1 °F 51% 30.03 in 10.0 mi West 15.0 mph - N/A   Mostly Cloudy
4:54 PM 23.0 °F 10.6 °F 6.1 °F 48% 30.03 in 10.0 mi WNW 13.8 mph - N/A   Overcast
5:54 PM 21.9 °F 11.0 °F 8.1 °F 55% 30.03 in 8.0 mi WNW 10.4 mph 21.9 mph 0.00 in Snow Light Snow
6:54 PM 21.0 °F 8.6 °F 10.9 °F 65% 30.04 in 2.0 mi NW 12.7 mph 19.6 mph 0.00 in Snow Light Snow
7:05 PM 21.2 °F 8.9 °F 10.4 °F 63% 30.00 in 9.0 mi WNW 12.7 mph - 0.00 in   Overcast
7:49 PM 21.2 °F 9.5 °F 10.4 °F 63% 30.00 in 3.0 mi WNW 11.5 mph - 0.00 in Snow Light Snow
7:54 PM 21.0 °F 8.1 °F 12.0 °F 68% 30.04 in 3.0 mi WNW 13.8 mph - 0.00 in Snow Light Snow
8:17 PM 19.4 °F 6.0 °F 14.0 °F 80% 30.01 in 1.8 mi WNW 13.8 mph - 0.00 in Snow Light Snow
8:36 PM 19.4 °F 9.5 °F 14.0 °F 80% 30.00 in 3.0 mi NW 8.1 mph - 0.00 in Snow Light Snow
8:38 PM 19.4 °F 9.5 °F 15.8 °F 86% 30.01 in 1.8 mi NW 8.1 mph - 0.00 in Snow Light Snow
8:54 PM 19.0 °F 10.0 °F 15.1 °F 85% 30.05 in 1.8 mi WNW 6.9 mph - 0.00 in Snow Light Snow
9:29 PM 19.4 °F 10.4 °F 15.8 °F 86% 30.01 in 1.5 mi WNW 6.9 mph - N/A Snow Light Snow
9:54 PM 19.0 °F 8.2 °F 15.1 °F 85% 30.04 in 1.5 mi WNW 9.2 mph - 0.01 in Snow Light Snow
9:59 PM 19.4 °F 11.5 °F 14.0 °F 80% 30.00 in 2.0 mi WNW 5.8 mph - 0.00 in Snow Light Snow
10:09 PM 17.6 °F 8.2 °F 12.2 °F 79% 30.00 in 9.0 mi WNW 6.9 mph - 0.00 in   Mostly Cloudy
10:18 PM 19.4 °F 10.4 °F 12.2 °F 74% 30.00 in 10.0 mi NW 6.9 mph - 0.00 in   Overcast
10:39 PM 19.4 °F 6.6 °F 12.2 °F 74% 30.00 in 1.5 mi NW 12.7 mph - 0.00 in Snow Light Snow
10:46 PM 19.4 °F 7.9 °F 14.0 °F 80% 30.00 in 0.8 mi NW 10.4 mph - 0.00 in Snow Light Snow
10:54 PM 19.0 °F 9.0 °F 15.1 °F 85% 30.04 in 2.5 mi WNW 8.1 mph - 0.01 in Snow Light Snow
11:54 PM 19.0 °F 9.0 °F 14.0 °F 81% 30.04 in 2.5 mi NW 8.1 mph - 0.00 in Snow Light Snow